STARLINK-1597, 46142

Orbit data source: Space-Track

STARLINK-1597, 46142 is a payload satellite owned by SpaceX/Seattle (US) in LEO that was launched on Tue, 18 Aug 2020 UTC via an FALCON 9 launch vehicle from the Air Force Eastern Test Range (AFETR). Payload-class satellites include a variety of spacecraft equipped with specific instruments for various scientific and technological missions. These include communications satellites like Starlink; space stations such as the ISS; scientific satellites like the Hubble; Earth observation satellites from companies like Planet Labs, Umbra, and HawkEye 360; GPS; miniature CubeSats for education and research; and military/defense satellites.

Loading next visibility...
Identifier
46142, 2020-057AB
Orbit
LEO
Last TLE update
13 hours ago
Origin
Manufacturer
SpaceX/Seattle
Mission
Operational Commercial Communications
Bus & Motor
STARLINK, Unknown motor
Mass
260 kg wet, ~248 kg dry
Launch date (UTC)
2020-08-18 (5 years ago)
Launch vehicle
FALCON 9
Launch site
Air Force Eastern Test Range (AFETR)
Object type
Payload
Rocket body
Debris
Shape & HBR
Box + 1 Pan, 8.86 m
Radar Cross Section
13.562 m², Large (>1 m²)

Expand to show TLE details & history

TLE from 13 hours ago
0 STARLINK-1597
1 46142U 20057AB  25181.52680912  .00000445  00000-0  48756-4 0  9998
2 46142  53.0561   8.6209 0001324  88.4522 271.6619 15.06392244268052
Epoch: 2025-06-30T12:38Z
TLE epoch observation values (Epoch: 2025-06-30T12:38:36.307Z)
Latitude
-0.00002°
Longitude
-99.86574°
Altitude
548.088 km
Speed
7.589 km/s
True Right ascension
00h 34m 29s
True Declination
0° 00' 00"
Sunlit
Object was in daylight at epoch
Visualization orbit readout
Latitude
20.39028°
Longitude
-86.12961°
Altitude
547.32 km
Speed
7.592 km/s
Apparent Right ascension
01h 19m 39s
Apparent Declination
-8° 21' 31"
Sunlit
Object is in daylight
Visualization observer readout
Local Sidereal Time
13:06:43
Azimuth
353.896° N
Elevation
-58.31°
Doppler factor
1
Orbital elements
Apogee altitude
548.423 km
Perigee altitude
546.589 km
Semi-major axis
6,925.643 km
Eccentricity
0.00013
Inclination
53.0561°
RAAN
8.6209°
Arg. of periapsis
88.4522°
True anomaly
Unknown
Mean anomaly
271.6619°
Eccentric anomaly
Unknown
Mean motion
3.76576 °/min
Orbital period
95.6 mins
BSTAR
0.000048756
Loading maneuver chart data...
Loading SW <> Apogee altitude chart data...
Loading historical data...
Loading historical data...
Loading historical data...
Loading historical data...
Loading historical data...
Loading historical data...
Loading historical data...

STARLINK-1597 Visibility forecast

Observer location: undefined°, undefined°

Span
Click to sort rows by Start time (UTC) header in descending order
Start Az.
Max El. time (UTC)
Max El. Az.
Max El.
End time (UTC)
End Az.
6 mins2025-07-01 14:16:44.376Z187.097° SSW2025-07-01 14:19:44.376Z123.315° SE27.297°2025-07-01 14:22:44.376Z71.127° E
6 mins2025-07-01 15:56:44.376Z271.552° WNW2025-07-01 15:58:44.376Z321.286° NNW32.051°2025-07-01 16:02:44.376Z38.276° NE
5 mins2025-07-01 20:58:44.376Z338.912° N2025-07-01 21:00:44.376Z30.565° NE30.601°2025-07-01 21:03:44.376Z93.587° ESE
6 mins2025-07-01 22:37:44.376Z284.042° WNW2025-07-01 22:40:44.376Z211.272° SW28.805°2025-07-01 22:43:44.376Z163.479° S
|